Location: Malvern Link
(52.1333°N, 2.3000°W)
Time: 03:35:06
(UTC+00:00)

DIWATA 2B (PO-101) - Pass Details

Date: 25 June 2022
Orbit: 583 x 599 km, 98.0° (Epoch: 13 August)

Event Time Altitude Azimuth Distance (km) Brightness Sun altitude
Exits shadow 00:49:16 - 129° (SE) 2,499 ? -14.0°
Reaches altitude 10° 00:50:48 10° 121° (ESE) 1,938 ? -14.0°
Maximum altitude 00:54:21 27° 63° (ENE) 1,160 ? -13.9°
Drops below altitude 10° 00:57:56 10° 5° (N) 1,953 ? -13.8°
Sets 01:00:20 0° 354° (N) 2,861 ? -13.7°
